Location: Bremen
(53.0833°N, 8.8000°E)
Time: 13:11:47
(UTC+02:00)

ISS - Pass Details

Date: 01 May 2025
Orbit: 416 x 419 km, 51.6° (Epoch: 14 May)

Event Time Altitude Azimuth Distance (km) Brightness Sun altitude
Exits shadow 03:47:15 34° 231° (SW) 717 -3.1 -15.0°
Maximum altitude 03:48:28 57° 168° (SSE) 495 -3.7 -14.9°
Drops below altitude 10° 03:51:46 10° 88° (E) 1,498 -0.4 -14.6°
Sets 03:53:53 0° 85° (E) 2,363 0.7 -14.4°
